ASL17H LPPT-LYBE

Flight info

Callsign ASL17H
Flight time N/A
Altitude 36000
Route ORVED DCT UREDI DCT DIPOL DCT RBO DCT PINAR DCT SEGRE DCT BRITO DCT PISUS DCT PONEN DCT SEROX N870 BCN N725 OSPOK/N0439F370 DCT NOLVI DCT ORKUM/N0437F360 DCT ELSAG DCT ALG DCT VAPUP/N0440F370 DCT KENEM DCT VRANA DCT GILUK DCT KEB DCT SOMUN L5 ENUPU
Aircraft A320/M-SDE2E3FGHIJ1LORVWY/HB1

Departure

Time 2026-05-04 19:06
Airport Lisbon Humberto Delgado Airport (LPPT)

Arrival

Time N/A
Airport Belgrade Nikola Tesla Airport (LYBE)
Time Latitude Longitude Altitude Speed Heading
2026-05-04 18:26 38.77121 -9.13733 340 ft 0 kts 168°
2026-05-04 18:57 38.77125 -9.13734 340 ft 2 kts 168°
2026-05-04 18:57 38.77139 -9.13737 340 ft 2 kts 168°
2026-05-04 18:57 38.77154 -9.13741 340 ft 2 kts 168°
2026-05-04 18:57 38.77169 -9.13742 341 ft 2 kts 199°
2026-05-04 18:58 38.77182 -9.13732 341 ft 2 kts 226°
2026-05-04 18:58 38.77190 -9.13716 340 ft 1 kts 253°
2026-05-04 18:58 38.77191 -9.13709 340 ft 1 kts 261°
2026-05-04 18:58 38.77192 -9.13705 340 ft 0 kts 259°
2026-05-04 19:01 38.77186 -9.13746 341 ft 6 kts 258°
2026-05-04 19:01 38.77177 -9.13799 342 ft 5 kts 258°
2026-05-04 19:02 38.77169 -9.13846 343 ft 5 kts 256°
2026-05-04 19:02 38.77150 -9.13884 343 ft 9 kts 219°
2026-05-04 19:02 38.77049 -9.13942 343 ft 17 kts 202°
2026-05-04 19:02 38.76931 -9.14004 341 ft 18 kts 203°
2026-05-04 19:03 38.76809 -9.14070 339 ft 17 kts 202°
2026-05-04 19:03 38.76727 -9.14114 339 ft 11 kts 203°
2026-05-04 19:03 38.76660 -9.14150 339 ft 10 kts 202°
2026-05-04 19:03 38.76603 -9.14185 338 ft 8 kts 220°
2026-05-04 19:04 38.76589 -9.14244 337 ft 7 kts 289°
2026-05-04 19:04 38.76611 -9.14311 338 ft 8 kts 292°
2026-05-04 19:04 38.76626 -9.14359 339 ft 5 kts 292°
2026-05-04 19:04 38.76647 -9.14385 340 ft 3 kts 346°
2026-05-04 19:05 38.76767 -9.14327 341 ft 42 kts 24°
2026-05-04 19:05 38.77241 -9.14078 350 ft 102 kts 22°
2026-05-04 19:05 38.78055 -9.13644 363 ft 151 kts 21°
2026-05-04 19:05 38.79105 -9.13077 711 ft 164 kts 21°
2026-05-04 19:06 38.80139 -9.12437 1209 ft 171 kts 26°
2026-05-04 19:06 38.81117 -9.11585 1828 ft 170 kts 29°
2026-05-04 19:06 38.82117 -9.10789 2317 ft 173 kts 26°
2026-05-04 19:06 38.83190 -9.10003 2617 ft 185 kts 25°
2026-05-04 19:07 38.84376 -9.09192 2964 ft 196 kts 24°
2026-05-04 19:07 38.85627 -9.08365 3250 ft 214 kts 25°
2026-05-04 19:07 38.86992 -9.07441 3592 ft 231 kts 25°
2026-05-04 19:07 38.88495 -9.06406 3957 ft 250 kts 28°
2026-05-04 19:08 38.89819 -9.04873 4476 ft 265 kts 51°
2026-05-04 19:08 38.90724 -9.02790 5228 ft 270 kts 61°
2026-05-04 19:08 38.91519 -9.00592 5974 ft 272 kts 62°
2026-05-04 19:08 38.92306 -8.98397 6703 ft 275 kts 62°
2026-05-04 19:09 38.93113 -8.96172 7397 ft 279 kts 62°
2026-05-04 19:09 38.93940 -8.93897 8084 ft 283 kts 62°
2026-05-04 19:09 38.94760 -8.91583 8774 ft 288 kts 62°
2026-05-04 19:09 38.95591 -8.89220 9434 ft 292 kts 62°
2026-05-04 19:10 38.96431 -8.86833 10090 ft 296 kts 63°
2026-05-04 19:10 38.97282 -8.84414 10604 ft 305 kts 62°
2026-05-04 19:10 38.98181 -8.81860 10906 ft 320 kts 63°
2026-05-04 19:10 38.99117 -8.79201 11260 ft 333 kts 63°
2026-05-04 19:11 39.00064 -8.76498 11790 ft 338 kts 63°
2026-05-04 19:11 39.01040 -8.73708 12350 ft 342 kts 62°
2026-05-04 19:11 39.02016 -8.70911 12871 ft 347 kts 62°
2026-05-04 19:11 39.03011 -8.68066 13369 ft 352 kts 62°
2026-05-04 19:12 39.04010 -8.65208 13836 ft 357 kts 62°
2026-05-04 19:12 39.06063 -8.59329 14879 ft 364 kts 62°
2026-05-04 19:12 39.07099 -8.56357 15372 ft 368 kts 62°
2026-05-04 19:13 39.08152 -8.53330 15864 ft 372 kts 62°
2026-05-04 19:13 39.09212 -8.50285 16340 ft 375 kts 62°
2026-05-04 19:13 39.10289 -8.47185 16821 ft 378 kts 62°
2026-05-04 19:13 39.11362 -8.44091 17295 ft 382 kts 62°
2026-05-04 19:14 39.12442 -8.40975 17752 ft 385 kts 62°
2026-05-04 19:14 39.13531 -8.37831 18193 ft 389 kts 63°
2026-05-04 19:14 39.14640 -8.34621 18645 ft 392 kts 63°
2026-05-04 19:14 39.15743 -8.31431 19054 ft 395 kts 63°
2026-05-04 19:15 39.16867 -8.28171 19477 ft 399 kts 63°
2026-05-04 19:15 39.17992 -8.24901 19891 ft 402 kts 63°
2026-05-04 19:15 39.19132 -8.21590 20305 ft 405 kts 63°
2026-05-04 19:15 39.20267 -8.18288 20702 ft 407 kts 63°
2026-05-04 19:16 39.21426 -8.14918 21078 ft 411 kts 63°
2026-05-04 19:16 39.22573 -8.11577 21454 ft 414 kts 63°
2026-05-04 19:16 39.23745 -8.08158 21809 ft 417 kts 63°
2026-05-04 19:16 39.24919 -8.04724 22184 ft 420 kts 63°
2026-05-04 19:17 39.26107 -8.01252 22540 ft 424 kts 63°
2026-05-04 19:17 39.27298 -7.97759 22914 ft 426 kts 62°
2026-05-04 19:17 39.28482 -7.94288 23270 ft 429 kts 63°
2026-05-04 19:17 39.29692 -7.90736 23619 ft 431 kts 63°
2026-05-04 19:18 39.30898 -7.87190 23949 ft 434 kts 63°
2026-05-04 19:18 39.32121 -7.83590 24286 ft 437 kts 63°
2026-05-04 19:18 39.33349 -7.79971 24568 ft 440 kts 63°
2026-05-04 19:18 39.34579 -7.76341 24875 ft 443 kts 63°
2026-05-04 19:19 39.35811 -7.72694 25200 ft 445 kts 63°
2026-05-04 19:19 39.37066 -7.68980 25482 ft 449 kts 62°
2026-05-04 19:19 39.38315 -7.65322 25786 ft 451 kts 61°
2026-05-04 19:19 39.39698 -7.61631 26076 ft 453 kts 59°
2026-05-04 19:20 39.41125 -7.57938 26356 ft 456 kts 59°
2026-05-04 19:20 39.42549 -7.54272 26622 ft 458 kts 59°
2026-05-04 19:20 39.43977 -7.50582 26915 ft 461 kts 59°
2026-05-04 19:20 39.45428 -7.46817 27203 ft 463 kts 59°
2026-05-04 19:21 39.46857 -7.43107 27459 ft 466 kts 59°
2026-05-04 19:21 39.48320 -7.39292 27748 ft 469 kts 59°
2026-05-04 19:21 39.49765 -7.35529 27997 ft 471 kts 59°
2026-05-04 19:21 39.51237 -7.31682 28240 ft 474 kts 60°
2026-05-04 19:22 39.52692 -7.27872 28460 ft 476 kts 60°
2026-05-04 19:22 39.54163 -7.24017 28701 ft 478 kts 60°
2026-05-04 19:22 39.55654 -7.20100 29043 ft 478 kts 60°
2026-05-04 19:22 39.57114 -7.16258 29323 ft 479 kts 60°
2026-05-04 19:23 39.58612 -7.12312 29566 ft 481 kts 60°
2026-05-04 19:23 39.60083 -7.08438 29753 ft 483 kts 60°
2026-05-04 19:23 39.61582 -7.04480 29988 ft 485 kts 60°
2026-05-04 19:23 39.63055 -7.00592 30197 ft 487 kts 60°
2026-05-04 19:24 39.64563 -6.96606 30405 ft 490 kts 60°
2026-05-04 19:24 39.66045 -6.92681 30608 ft 491 kts 60°
2026-05-04 19:24 39.67550 -6.88694 30811 ft 493 kts 60°
2026-05-04 19:24 39.69064 -6.84671 31022 ft 495 kts 60°
2026-05-04 19:25 39.70571 -6.80657 31236 ft 496 kts 60°
2026-05-04 19:25 39.72094 -6.76601 31437 ft 498 kts 60°
2026-05-04 19:25 39.73609 -6.72558 31614 ft 500 kts 60°
2026-05-04 19:25 39.75128 -6.68498 31828 ft 501 kts 60°
2026-05-04 19:26 39.76638 -6.64459 32022 ft 502 kts 60°
2026-05-04 19:26 39.78160 -6.60383 32254 ft 502 kts 60°
2026-05-04 19:26 39.79689 -6.56280 32522 ft 502 kts 60°
2026-05-04 19:26 39.81200 -6.52222 32795 ft 501 kts 60°
2026-05-04 19:27 39.82713 -6.48145 33056 ft 500 kts 60°
2026-05-04 19:27 39.84224 -6.44074 33281 ft 500 kts 60°
2026-05-04 19:27 39.85732 -6.40005 33511 ft 500 kts 61°
2026-05-04 19:27 39.87158 -6.35896 33736 ft 501 kts 62°
2026-05-04 19:28 39.88551 -6.31745 33955 ft 500 kts 63°
2026-05-04 19:28 39.89936 -6.27569 34129 ft 500 kts 64°
2026-05-04 19:28 39.91313 -6.23399 34297 ft 500 kts 64°
2026-05-04 19:28 39.92685 -6.19250 34457 ft 500 kts 64°
2026-05-04 19:29 39.94050 -6.15126 34600 ft 501 kts 64°
2026-05-04 19:29 39.95430 -6.10964 34736 ft 502 kts 64°
2026-05-04 19:29 39.96806 -6.06796 34879 ft 502 kts 64°
2026-05-04 19:29 39.98190 -6.02600 35023 ft 502 kts 64°
2026-05-04 19:30 39.99571 -5.98410 35182 ft 502 kts 64°
2026-05-04 19:30 40.00956 -5.94205 35322 ft 502 kts 64°
2026-05-04 19:30 40.02313 -5.90074 35452 ft 502 kts 64°
2026-05-04 19:30 40.03688 -5.85890 35562 ft 502 kts 64°
2026-05-04 19:31 40.05064 -5.81696 35667 ft 502 kts 64°
2026-05-04 19:31 40.06424 -5.77534 35808 ft 503 kts 64°
2026-05-04 19:31 40.07803 -5.73315 35945 ft 503 kts 64°
2026-05-04 19:32 40.10552 -5.64885 35985 ft 504 kts 64°
2026-05-04 19:32 40.13264 -5.56534 36000 ft 504 kts 65°
2026-05-04 19:33 40.15990 -5.48121 36001 ft 503 kts 64°
2026-05-04 19:33 40.18707 -5.39708 35982 ft 503 kts 65°
2026-05-04 19:34 40.21425 -5.31272 35981 ft 503 kts 65°
2026-05-04 19:34 40.24131 -5.22846 35977 ft 504 kts 65°
2026-05-04 19:35 40.26822 -5.14434 36001 ft 503 kts 65°
2026-05-04 19:35 40.29521 -5.05984 35991 ft 504 kts 66°
2026-05-04 19:36 40.32226 -4.97476 35996 ft 503 kts 66°
2026-05-04 19:36 40.34904 -4.89034 35997 ft 503 kts 66°
2026-05-04 19:37 40.37574 -4.80578 35998 ft 503 kts 65°
2026-05-04 19:37 40.40260 -4.72051 35994 ft 503 kts 66°
2026-05-04 19:38 40.42924 -4.63581 35998 ft 503 kts 66°
2026-05-04 19:38 40.45576 -4.55120 35996 ft 503 kts 66°
2026-05-04 19:39 40.48203 -4.46715 36008 ft 502 kts 66°
2026-05-04 19:39 40.50841 -4.38238 36004 ft 501 kts 66°
2026-05-04 19:40 40.53479 -4.29741 35994 ft 502 kts 67°
2026-05-04 19:40 40.56095 -4.21281 36002 ft 501 kts 67°
2026-05-04 19:41 40.58704 -4.12815 36001 ft 500 kts 66°
2026-05-04 19:41 40.61298 -4.04380 36014 ft 500 kts 67°
2026-05-04 19:42 40.63891 -3.95920 36012 ft 500 kts 67°
2026-05-04 19:42 40.66478 -3.87445 36005 ft 500 kts 67°
2026-05-04 19:43 40.69058 -3.78967 36011 ft 500 kts 67°
2026-05-04 19:43 40.71635 -3.70479 36010 ft 500 kts 67°
2026-05-04 19:44 40.74209 -3.61977 35999 ft 499 kts 67°
2026-05-04 19:44 40.76756 -3.53528 35999 ft 499 kts 67°
2026-05-04 19:45 40.79296 -3.45072 35994 ft 498 kts 67°
2026-05-04 19:45 40.81837 -3.36584 35998 ft 498 kts 67°
2026-05-04 19:46 40.84367 -3.28104 35997 ft 497 kts 69°
2026-05-04 19:46 40.86470 -3.19443 36005 ft 497 kts 75°
2026-05-04 19:47 40.88204 -3.10614 36002 ft 497 kts 76°
2026-05-04 19:47 40.89904 -3.01839 35996 ft 496 kts 76°
2026-05-04 19:48 40.91625 -2.93013 35997 ft 496 kts 76°
2026-05-04 19:48 40.93345 -2.84185 35997 ft 496 kts 76°
2026-05-04 19:49 40.95054 -2.75384 36001 ft 496 kts 76°
2026-05-04 19:49 40.96750 -2.66602 35994 ft 496 kts 76°
2026-05-04 19:50 40.98447 -2.57770 35993 ft 495 kts 76°
2026-05-04 19:50 41.00133 -2.48958 35993 ft 495 kts 76°
2026-05-04 19:51 41.01804 -2.40162 36005 ft 495 kts 76°
2026-05-04 19:51 41.03477 -2.31354 36013 ft 495 kts 77°
2026-05-04 19:52 41.05150 -2.22512 36009 ft 495 kts 77°
2026-05-04 19:52 41.06800 -2.13739 36008 ft 495 kts 77°
2026-05-04 19:53 41.08454 -2.04910 36009 ft 495 kts 77°
2026-05-04 19:53 41.10106 -1.96053 36001 ft 494 kts 77°
2026-05-04 19:54 41.11734 -1.87262 35997 ft 494 kts 77°
2026-05-04 19:54 41.13358 -1.78444 35992 ft 494 kts 77°
2026-05-04 19:55 41.14977 -1.69629 35979 ft 493 kts 77°
2026-05-04 19:55 41.16589 -1.60799 35989 ft 493 kts 77°
2026-05-04 19:56 41.18190 -1.51992 35990 ft 493 kts 77°
2026-05-04 19:56 41.19791 -1.43145 35987 ft 493 kts 77°
2026-05-04 19:57 41.21379 -1.34352 35989 ft 493 kts 78°
2026-05-04 19:57 41.22971 -1.25491 35988 ft 492 kts 78°
2026-05-04 19:58 41.24540 -1.16708 35984 ft 492 kts 78°
2026-05-04 19:58 41.26103 -1.07913 35979 ft 492 kts 78°
2026-05-04 19:59 41.27665 -0.99082 35984 ft 491 kts 78°
2026-05-04 19:59 41.29222 -0.90252 35981 ft 490 kts 78°
2026-05-04 20:00 41.30756 -0.81492 35977 ft 490 kts 78°
2026-05-04 20:00 41.32292 -0.72677 35962 ft 490 kts 78°
2026-05-04 20:01 41.33820 -0.63872 35959 ft 490 kts 78°
2026-05-04 20:01 41.35029 -0.54954 35954 ft 489 kts 85°
2026-05-04 20:02 41.35382 -0.45991 35942 ft 486 kts 92°
2026-05-04 20:02 41.35294 -0.37052 35941 ft 486 kts 93°
2026-05-04 20:03 41.35198 -0.28087 35940 ft 486 kts 94°
2026-05-04 20:03 41.35113 -0.19148 35945 ft 485 kts 94°
2026-05-04 20:04 41.35028 -0.10215 35943 ft 484 kts 94°
2026-05-04 20:04 41.34937 -0.01244 35945 ft 484 kts 94°
2026-05-04 20:05 41.34840 0.07638 35929 ft 483 kts 94°
2026-05-04 20:05 41.34734 0.16548 35930 ft 484 kts 94°
2026-05-04 20:06 41.34623 0.25457 35933 ft 484 kts 94°
2026-05-04 20:06 41.34504 0.34401 35923 ft 484 kts 94°
2026-05-04 20:07 41.34377 0.43339 35937 ft 485 kts 94°
2026-05-04 20:07 41.34242 0.52269 35933 ft 485 kts 94°
2026-05-04 20:08 41.34101 0.61186 35941 ft 485 kts 94°
2026-05-04 20:08 41.33955 0.70151 35939 ft 485 kts 95°
2026-05-04 20:09 41.33799 0.79115 35946 ft 485 kts 95°
2026-05-04 20:09 41.33638 0.87981 35949 ft 484 kts 95°
2026-05-04 20:10 41.33469 0.96968 35951 ft 485 kts 95°
2026-05-04 20:10 41.33294 1.05852 35957 ft 484 kts 95°
2026-05-04 20:11 41.33112 1.14778 35953 ft 484 kts 95°
2026-05-04 20:11 41.32922 1.23728 35960 ft 484 kts 95°
2026-05-04 20:12 41.32727 1.32645 35965 ft 483 kts 95°
2026-05-04 20:12 41.32526 1.41518 35963 ft 483 kts 95°
2026-05-04 20:13 41.32317 1.50422 35950 ft 483 kts 95°
2026-05-04 20:13 41.32102 1.59321 35949 ft 482 kts 95°
2026-05-04 20:14 41.31879 1.68200 35943 ft 482 kts 96°
2026-05-04 20:14 41.31649 1.77099 35932 ft 482 kts 96°
2026-05-04 20:15 41.31411 1.85991 35936 ft 482 kts 96°
2026-05-04 20:15 41.31168 1.94857 35928 ft 481 kts 96°
2026-05-04 20:16 41.30916 2.03743 35929 ft 481 kts 96°
2026-05-04 20:16 41.30338 2.12510 35921 ft 477 kts 103°
2026-05-04 20:17 41.29040 2.21150 35925 ft 475 kts 107°
2026-05-04 20:17 41.27607 2.29686 35923 ft 475 kts 107°
2026-05-04 20:18 41.26181 2.38216 35928 ft 475 kts 107°
2026-05-04 20:18 41.24749 2.46778 35918 ft 475 kts 107°
2026-05-04 20:19 41.23317 2.55329 35919 ft 476 kts 107°
2026-05-04 20:19 41.21874 2.63907 35917 ft 475 kts 107°
2026-05-04 20:20 41.20439 2.72389 35919 ft 475 kts 108°
2026-05-04 20:20 41.18988 2.80933 35929 ft 476 kts 108°
2026-05-04 20:21 41.17525 2.89498 35925 ft 475 kts 108°
2026-05-04 20:21 41.15330 3.02286 35933 ft 475 kts 108°
2026-05-04 20:22 41.13852 3.10838 35929 ft 476 kts 108°
2026-05-04 20:22 41.12380 3.19318 35935 ft 477 kts 108°
2026-05-04 20:23 41.10883 3.27913 35939 ft 477 kts 108°
2026-05-04 20:23 41.09392 3.36424 35937 ft 477 kts 108°
2026-05-04 20:24 41.07886 3.44982 35938 ft 478 kts 108°
2026-05-04 20:24 41.06380 3.53498 35932 ft 478 kts 108°
2026-05-04 20:25 41.04850 3.62104 35936 ft 479 kts 108°
2026-05-04 20:25 41.03324 3.70661 35931 ft 479 kts 109°
2026-05-04 20:26 41.01796 3.79177 35936 ft 479 kts 109°
2026-05-04 20:26 41.00249 3.87749 35933 ft 479 kts 109°
2026-05-04 20:27 40.98697 3.96298 35935 ft 481 kts 109°
2026-05-04 20:27 40.97131 4.04892 35944 ft 482 kts 109°
2026-05-04 20:28 40.95555 4.13509 35941 ft 482 kts 109°
2026-05-04 20:28 40.93974 4.22116 35944 ft 482 kts 109°
2026-05-04 20:29 40.92397 4.30671 35953 ft 482 kts 109°
2026-05-04 20:29 40.90805 4.39253 35952 ft 482 kts 109°
2026-05-04 20:30 40.89207 4.47823 35949 ft 482 kts 109°
2026-05-04 20:30 40.87618 4.56358 35958 ft 482 kts 109°
2026-05-04 20:31 40.86044 4.64949 35952 ft 484 kts 107°
2026-05-04 20:31 40.84996 4.73766 35960 ft 488 kts 102°
2026-05-04 20:32 40.84188 4.82696 35964 ft 488 kts 102°
2026-05-04 20:32 40.83378 4.91542 35963 ft 489 kts 102°
2026-05-04 20:33 40.82549 5.00425 35972 ft 490 kts 102°
2026-05-04 20:33 40.81705 5.09327 35979 ft 490 kts 102°
2026-05-04 20:34 40.80853 5.18268 35980 ft 490 kts 102°
2026-05-04 20:34 40.79999 5.27119 35981 ft 490 kts 102°
2026-05-04 20:35 40.79134 5.36029 35977 ft 490 kts 102°
2026-05-04 20:35 40.78263 5.44925 35972 ft 490 kts 102°
2026-05-04 20:36 40.77384 5.53801 35976 ft 492 kts 102°
2026-05-04 20:36 40.76501 5.62706 35976 ft 490 kts 102°
2026-05-04 20:37 40.75608 5.71598 35978 ft 491 kts 103°
2026-05-04 20:37 40.74705 5.80513 35976 ft 491 kts 102°
2026-05-04 20:38 40.73798 5.89420 35979 ft 492 kts 102°
2026-05-04 20:38 40.72886 5.98300 35980 ft 491 kts 102°
2026-05-04 20:39 40.71962 6.07181 35982 ft 491 kts 102°
2026-05-04 20:39 40.71031 6.16073 35983 ft 491 kts 102°
2026-05-04 20:40 40.70094 6.24972 35984 ft 491 kts 102°
2026-05-04 20:40 40.69154 6.33845 35987 ft 491 kts 102°
2026-05-04 20:41 40.68204 6.42740 35991 ft 491 kts 102°
2026-05-04 20:41 40.67247 6.51610 35991 ft 491 kts 102°
2026-05-04 20:42 40.66281 6.60528 35993 ft 491 kts 102°
2026-05-04 20:42 40.65315 6.69380 35993 ft 490 kts 102°
2026-05-04 20:43 40.64339 6.78224 35998 ft 491 kts 102°
2026-05-04 20:43 40.63351 6.87133 36001 ft 491 kts 102°
2026-05-04 20:44 40.62366 6.95970 36002 ft 490 kts 102°
2026-05-04 20:44 40.61377 7.04770 36003 ft 490 kts 102°
2026-05-04 20:45 40.60377 7.13591 36005 ft 489 kts 102°
2026-05-04 20:45 40.59368 7.22441 36008 ft 488 kts 102°
2026-05-04 20:46 40.58357 7.31260 36010 ft 488 kts 102°
2026-05-04 20:46 40.57345 7.40043 36009 ft 489 kts 101°
2026-05-04 20:47 40.56814 7.48935 36012 ft 492 kts 92°
2026-05-04 20:47 40.57152 7.57945 36014 ft 493 kts 85°
2026-05-04 20:48 40.57946 7.66819 36017 ft 492 kts 85°
2026-05-04 20:48 40.58748 7.75771 36022 ft 492 kts 85°
2026-05-04 20:49 40.59518 7.84705 36031 ft 491 kts 85°
2026-05-04 20:49 40.60263 7.93566 36039 ft 491 kts 85°
2026-05-04 20:50 40.61010 8.02503 36040 ft 490 kts 85°
2026-05-04 20:50 40.61745 8.11355 36049 ft 489 kts 85°
2026-05-04 20:51 40.62826 8.20190 36050 ft 490 kts 77°
2026-05-04 20:51 40.64770 8.28684 36053 ft 489 kts 68°
2026-05-04 20:52 40.67575 8.36821 36058 ft 488 kts 61°
2026-05-04 20:52 40.70717 8.44751 36058 ft 487 kts 60°
2026-05-04 20:53 40.73837 8.52654 36062 ft 487 kts 61°
2026-05-04 20:53 40.76925 8.60565 36065 ft 487 kts 61°
2026-05-04 20:54 40.80004 8.68495 36068 ft 487 kts 62°
2026-05-04 20:54 40.83062 8.76406 36071 ft 487 kts 62°
2026-05-04 20:55 40.86120 8.84332 36078 ft 486 kts 62°
2026-05-04 20:55 40.89192 8.92320 36080 ft 486 kts 62°
2026-05-04 20:56 40.92262 9.00320 36082 ft 485 kts 62°
2026-05-04 20:56 40.95328 9.08334 36076 ft 485 kts 62°
2026-05-04 20:57 40.98385 9.16346 36072 ft 485 kts 62°
2026-05-04 20:57 41.01414 9.24307 36069 ft 485 kts 62°
2026-05-04 20:58 41.04431 9.32254 36068 ft 485 kts 62°
2026-05-04 20:58 41.07467 9.40280 36066 ft 484 kts 62°
2026-05-04 20:59 41.10473 9.48245 36067 ft 484 kts 62°
2026-05-04 20:59 41.13470 9.56210 36069 ft 484 kts 62°
2026-05-04 21:00 41.14954 9.60161 36351 ft 484 kts 62°
2026-05-04 21:00 41.16449 9.64147 36166 ft 482 kts 62°
2026-05-04 21:00 41.19429 9.72110 36091 ft 481 kts 62°
2026-05-04 21:01 41.22382 9.80023 36077 ft 482 kts 62°
2026-05-04 21:01 41.25343 9.87978 36076 ft 481 kts 62°
2026-05-04 21:02 41.28306 9.95954 36073 ft 482 kts 62°
2026-05-04 21:02 41.31242 10.03885 36075 ft 482 kts 62°
2026-05-04 21:03 41.34190 10.11871 36082 ft 482 kts 62°
2026-05-04 21:03 41.37124 10.19847 36097 ft 482 kts 62°
2026-05-04 21:04 41.40108 10.27973 36299 ft 484 kts 62°
2026-05-04 21:04 41.41562 10.31946 36542 ft 483 kts 62°
2026-05-04 21:04 41.43036 10.35975 36797 ft 481 kts 62°
2026-05-04 21:05 41.44486 10.39945 37027 ft 480 kts 62°
2026-05-04 21:05 41.45953 10.43964 37094 ft 480 kts 62°
2026-05-04 21:05 41.48867 10.51971 37101 ft 480 kts 62°
2026-05-04 21:06 41.51771 10.59964 37107 ft 480 kts 62°
2026-05-04 21:06 41.54673 10.67980 36765 ft 479 kts 63°
2026-05-04 21:07 41.56112 10.71966 36996 ft 479 kts 62°
2026-05-04 21:07 41.57551 10.75956 37075 ft 480 kts 62°
2026-05-04 21:07 41.60433 10.83960 37087 ft 479 kts 62°
2026-05-04 21:08 41.63308 10.91970 37099 ft 479 kts 62°
2026-05-04 21:08 41.66193 11.00032 37097 ft 479 kts 62°
2026-05-04 21:09 41.69062 11.08073 37102 ft 479 kts 62°